VLG287Y LEBL-LOWW

Flight info

Callsign VLG287Y
Flight time 1h 46m
Altitude 36000
Route AGENA DCT BODEQ DCT LUMAS DCT UNANA DCT STP DCT RAPED DCT PIGOS DCT EKSID DCT NOSTA DCT NOPMU DCT KOXUD DCT BORMI DCT MALUG/N0434F350 DCT ARALD DCT ABTAN
Aircraft A320/M-SDFGHILORVWXY/LB1

Departure

Time 2026-05-07 09:22
Airport Josep Tarradellas Barcelona-El Prat Airport (LEBL)

Arrival

Time 2026-05-07 11:09
Airport Vienna International Airport (LOWW)
Time Latitude Longitude Altitude Speed Heading
2026-05-07 09:00 41.29053 2.08110 19 ft 0 kts 335°
2026-05-07 09:00 41.29052 2.08110 19 ft 0 kts 335°
2026-05-07 09:14 41.29050 2.08112 19 ft 2 kts 335°
2026-05-07 09:14 41.29035 2.08121 19 ft 2 kts 336°
2026-05-07 09:14 41.29019 2.08130 19 ft 2 kts 338°
2026-05-07 09:15 41.29004 2.08138 20 ft 2 kts 341°
2026-05-07 09:15 41.28988 2.08144 19 ft 2 kts 358°
2026-05-07 09:15 41.28973 2.08138 20 ft 2 kts 64°
2026-05-07 09:15 41.28971 2.08132 20 ft 0 kts 66°
2026-05-07 09:18 41.28973 2.08139 20 ft 2 kts 66°
2026-05-07 09:18 41.28983 2.08169 20 ft 6 kts 65°
2026-05-07 09:18 41.29007 2.08236 20 ft 9 kts 65°
2026-05-07 09:18 41.29026 2.08327 19 ft 11 kts 110°
2026-05-07 09:19 41.28950 2.08333 18 ft 13 kts 199°
2026-05-07 09:19 41.28855 2.08287 17 ft 16 kts 199°
2026-05-07 09:19 41.28743 2.08239 16 ft 18 kts 197°
2026-05-07 09:19 41.28663 2.08150 18 ft 16 kts 244°
2026-05-07 09:20 41.28615 2.08009 16 ft 18 kts 245°
2026-05-07 09:20 41.28562 2.07853 17 ft 19 kts 245°
2026-05-07 09:20 41.28503 2.07683 16 ft 21 kts 245°
2026-05-07 09:20 41.28430 2.07567 17 ft 16 kts 202°
2026-05-07 09:21 41.28323 2.07507 16 ft 15 kts 216°
2026-05-07 09:21 41.28261 2.07424 17 ft 11 kts 175°
2026-05-07 09:21 41.28254 2.07503 21 ft 10 kts 62°
2026-05-07 09:21 41.28293 2.07615 19 ft 25 kts 67°
2026-05-07 09:22 41.28458 2.08104 21 ft 89 kts 66°
2026-05-07 09:22 41.28788 2.09063 20 ft 137 kts 65°
2026-05-07 09:22 41.29228 2.10328 238 ft 159 kts 67°
2026-05-07 09:22 41.29486 2.11731 942 ft 157 kts 93°
2026-05-07 09:23 41.29330 2.13253 1372 ft 178 kts 99°
2026-05-07 09:23 41.29130 2.14989 1677 ft 203 kts 98°
2026-05-07 09:23 41.28928 2.16932 2309 ft 209 kts 98°
2026-05-07 09:23 41.28728 2.18823 3246 ft 207 kts 97°
2026-05-07 09:24 41.28535 2.20741 3941 ft 212 kts 97°
2026-05-07 09:24 41.28350 2.22704 4661 ft 216 kts 97°
2026-05-07 09:24 41.28158 2.24729 5284 ft 224 kts 97°
2026-05-07 09:24 41.27957 2.26803 5991 ft 228 kts 97°
2026-05-07 09:25 41.27754 2.28913 6694 ft 232 kts 97°
2026-05-07 09:25 41.27548 2.31054 7390 ft 235 kts 97°
2026-05-07 09:25 41.27320 2.33307 7769 ft 258 kts 98°
2026-05-07 09:25 41.27057 2.35775 8109 ft 281 kts 98°
2026-05-07 09:26 41.26773 2.38395 8740 ft 291 kts 98°
2026-05-07 09:26 41.26482 2.41084 9519 ft 296 kts 98°
2026-05-07 09:26 41.26188 2.43811 10229 ft 302 kts 98°
2026-05-07 09:26 41.25880 2.46669 10494 ft 324 kts 98°
2026-05-07 09:27 41.25553 2.49726 10816 ft 341 kts 98°
2026-05-07 09:27 41.25239 2.52876 11435 ft 347 kts 95°
2026-05-07 09:27 41.26269 2.59128 12773 ft 355 kts 60°
2026-05-07 09:28 41.27641 2.61822 13446 ft 358 kts 55°
2026-05-07 09:28 41.29097 2.64531 14078 ft 362 kts 53°
2026-05-07 09:28 41.30824 2.66987 14631 ft 367 kts 41°
2026-05-07 09:28 41.32913 2.68955 15189 ft 370 kts 28°
2026-05-07 09:29 41.35272 2.70351 15753 ft 373 kts 19°
2026-05-07 09:29 41.37719 2.71533 16314 ft 376 kts 19°
2026-05-07 09:29 41.40188 2.72730 16900 ft 379 kts 19°
2026-05-07 09:29 41.42677 2.73942 17462 ft 383 kts 19°
2026-05-07 09:30 41.45158 2.75274 18011 ft 387 kts 27°
2026-05-07 09:30 41.47373 2.77340 18494 ft 393 kts 43°
2026-05-07 09:30 41.49125 2.80147 18981 ft 396 kts 59°
2026-05-07 09:30 41.50269 2.83489 19456 ft 399 kts 75°
2026-05-07 09:31 41.50717 2.87138 19930 ft 400 kts 91°
2026-05-07 09:31 41.50604 2.90850 20408 ft 403 kts 95°
2026-05-07 09:31 41.50446 2.94597 20865 ft 406 kts 95°
2026-05-07 09:31 41.50290 2.98375 21318 ft 410 kts 95°
2026-05-07 09:32 41.50133 3.02186 21757 ft 413 kts 95°
2026-05-07 09:32 41.49975 3.06027 22190 ft 417 kts 95°
2026-05-07 09:32 41.49816 3.09901 22628 ft 420 kts 95°
2026-05-07 09:32 41.49655 3.13812 23063 ft 424 kts 95°
2026-05-07 09:33 41.49582 3.17762 23487 ft 429 kts 89°
2026-05-07 09:33 41.49948 3.21735 23855 ft 435 kts 79°
2026-05-07 09:33 41.50613 3.25681 24209 ft 438 kts 78°
2026-05-07 09:33 41.51287 3.29661 24566 ft 441 kts 78°
2026-05-07 09:34 41.51961 3.33670 24921 ft 444 kts 79°
2026-05-07 09:34 41.52636 3.37708 25275 ft 447 kts 79°
2026-05-07 09:34 41.53311 3.41776 25620 ft 450 kts 79°
2026-05-07 09:34 41.53987 3.45867 25970 ft 453 kts 79°
2026-05-07 09:35 41.54669 3.49992 26313 ft 456 kts 79°
2026-05-07 09:35 41.55354 3.54144 26658 ft 459 kts 79°
2026-05-07 09:35 41.56041 3.58324 26987 ft 462 kts 79°
2026-05-07 09:35 41.56728 3.62528 27316 ft 465 kts 79°
2026-05-07 09:36 41.57419 3.66765 27644 ft 468 kts 79°
2026-05-07 09:36 41.58114 3.71030 27962 ft 471 kts 79°
2026-05-07 09:36 41.58814 3.75318 28306 ft 474 kts 79°
2026-05-07 09:36 41.59518 3.79638 28634 ft 477 kts 79°
2026-05-07 09:37 41.60222 3.83989 28960 ft 481 kts 79°
2026-05-07 09:37 41.60931 3.88367 29293 ft 484 kts 79°
2026-05-07 09:37 41.61645 3.92774 29613 ft 487 kts 79°
2026-05-07 09:37 41.62364 3.97204 29923 ft 490 kts 79°
2026-05-07 09:38 41.63085 4.01669 30214 ft 493 kts 79°
2026-05-07 09:38 41.63804 4.06154 30562 ft 493 kts 79°
2026-05-07 09:38 41.64521 4.10631 30992 ft 492 kts 79°
2026-05-07 09:38 41.65235 4.15095 31424 ft 490 kts 79°
2026-05-07 09:39 41.65946 4.19550 31852 ft 489 kts 79°
2026-05-07 09:39 41.66652 4.23990 32287 ft 488 kts 80°
2026-05-07 09:39 41.67355 4.28425 32719 ft 487 kts 80°
2026-05-07 09:39 41.68056 4.32851 33149 ft 486 kts 80°
2026-05-07 09:40 41.68752 4.37267 33582 ft 485 kts 80°
2026-05-07 09:40 41.69445 4.41669 34013 ft 483 kts 80°
2026-05-07 09:40 41.70136 4.46068 34360 ft 483 kts 80°
2026-05-07 09:40 41.70822 4.50468 34664 ft 483 kts 80°
2026-05-07 09:41 41.71505 4.54869 34942 ft 484 kts 80°
2026-05-07 09:41 41.72219 4.59272 35222 ft 485 kts 76°
2026-05-07 09:41 41.73313 4.63546 35490 ft 487 kts 66°
2026-05-07 09:41 41.74882 4.67564 35744 ft 487 kts 57°
2026-05-07 09:42 41.76888 4.71218 35968 ft 487 kts 47°
2026-05-07 09:42 41.81686 4.77665 36034 ft 491 kts 42°
2026-05-07 09:43 41.86560 4.84094 36038 ft 492 kts 43°
2026-05-07 09:43 41.91422 4.90546 36035 ft 492 kts 43°
2026-05-07 09:44 41.96286 4.97009 36035 ft 492 kts 43°
2026-05-07 09:44 42.01141 5.03484 36035 ft 492 kts 43°
2026-05-07 09:45 42.05997 5.09978 36044 ft 492 kts 43°
2026-05-07 09:45 42.10856 5.16472 36050 ft 492 kts 43°
2026-05-07 09:46 42.14891 5.21875 36053 ft 492 kts 43°
2026-05-07 09:46 42.19742 5.28387 36054 ft 492 kts 43°
2026-05-07 09:47 42.24585 5.34910 36053 ft 492 kts 43°
2026-05-07 09:47 42.29424 5.41428 36049 ft 492 kts 42°
2026-05-07 09:48 42.34262 5.47959 36049 ft 492 kts 43°
2026-05-07 09:48 42.39091 5.54506 36046 ft 491 kts 43°
2026-05-07 09:49 42.43913 5.61067 36053 ft 491 kts 43°
2026-05-07 09:49 42.48727 5.67637 36048 ft 491 kts 43°
2026-05-07 09:50 42.53547 5.74215 36046 ft 491 kts 43°
2026-05-07 09:50 42.58362 5.80799 36050 ft 492 kts 43°
2026-05-07 09:51 42.63170 5.87396 36040 ft 492 kts 42°
2026-05-07 09:51 42.67988 5.93998 36043 ft 492 kts 42°
2026-05-07 09:52 42.72790 6.00615 36040 ft 492 kts 43°
2026-05-07 09:52 42.77583 6.07260 36036 ft 492 kts 43°
2026-05-07 09:53 42.82377 6.13907 36041 ft 492 kts 42°
2026-05-07 09:53 42.87329 6.20290 36031 ft 488 kts 36°
2026-05-07 09:54 42.92541 6.26230 36030 ft 489 kts 36°
2026-05-07 09:54 42.97747 6.32197 36026 ft 488 kts 36°
2026-05-07 09:55 43.02939 6.38183 36024 ft 488 kts 36°
2026-05-07 09:55 43.08135 6.44179 36028 ft 488 kts 36°
2026-05-07 09:56 43.13325 6.50173 36025 ft 488 kts 36°
2026-05-07 09:56 43.18509 6.56181 36028 ft 488 kts 36°
2026-05-07 09:57 43.23327 6.62774 36026 ft 494 kts 51°
2026-05-07 09:57 43.27364 6.70403 36021 ft 494 kts 51°
2026-05-07 09:58 43.31367 6.77991 36021 ft 494 kts 51°
2026-05-07 09:58 43.35401 6.85643 36020 ft 495 kts 51°
2026-05-07 09:59 43.39430 6.93309 36022 ft 495 kts 51°
2026-05-07 09:59 43.43479 7.01039 36025 ft 495 kts 51°
2026-05-07 10:00 43.47471 7.08686 36025 ft 495 kts 51°
2026-05-07 10:00 43.51485 7.16389 36022 ft 495 kts 51°
2026-05-07 10:01 43.55522 7.24160 36022 ft 495 kts 51°
2026-05-07 10:01 43.59499 7.31840 36016 ft 495 kts 53°
2026-05-07 10:02 43.63501 7.39585 36019 ft 496 kts 51°
2026-05-07 10:02 43.67508 7.47328 36026 ft 496 kts 51°
2026-05-07 10:03 43.71508 7.55096 36028 ft 496 kts 52°
2026-05-07 10:03 43.75486 7.62887 36031 ft 496 kts 52°
2026-05-07 10:04 43.79466 7.70681 36031 ft 496 kts 52°
2026-05-07 10:04 43.84028 7.77721 36032 ft 488 kts 35°
2026-05-07 10:05 43.89367 7.83458 36029 ft 486 kts 33°
2026-05-07 10:05 43.94704 7.89226 36027 ft 488 kts 37°
2026-05-07 10:06 43.99616 7.95784 36019 ft 490 kts 41°
2026-05-07 10:06 44.04486 8.02421 36014 ft 490 kts 41°
2026-05-07 10:07 44.09361 8.09059 36019 ft 491 kts 41°
2026-05-07 10:07 44.14235 8.15719 36024 ft 491 kts 41°
2026-05-07 10:08 44.19099 8.22398 36025 ft 491 kts 41°
2026-05-07 10:08 44.23959 8.29089 36027 ft 491 kts 41°
2026-05-07 10:09 44.28812 8.35785 36024 ft 491 kts 41°
2026-05-07 10:09 44.33669 8.42502 36035 ft 492 kts 42°
2026-05-07 10:10 44.38527 8.49221 36041 ft 492 kts 42°
2026-05-07 10:10 44.43385 8.55961 36040 ft 492 kts 42°
2026-05-07 10:11 44.48235 8.62715 36050 ft 492 kts 42°
2026-05-07 10:11 44.53078 8.69484 36042 ft 492 kts 42°
2026-05-07 10:12 44.57920 8.76262 36044 ft 492 kts 43°
2026-05-07 10:12 44.62758 8.83043 36043 ft 492 kts 43°
2026-05-07 10:13 44.67559 8.89793 36035 ft 492 kts 43°
2026-05-07 10:13 44.72392 8.96606 36030 ft 492 kts 43°
2026-05-07 10:14 44.77219 9.03427 36030 ft 492 kts 43°
2026-05-07 10:14 44.82041 9.10261 36032 ft 492 kts 43°
2026-05-07 10:15 44.86863 9.17110 36031 ft 492 kts 43°
2026-05-07 10:15 44.91677 9.23969 36030 ft 492 kts 43°
2026-05-07 10:16 44.96489 9.30838 36029 ft 492 kts 44°
2026-05-07 10:16 45.01300 9.37719 36027 ft 492 kts 44°
2026-05-07 10:17 45.06106 9.44616 36027 ft 492 kts 44°
2026-05-07 10:17 45.10909 9.51517 36030 ft 492 kts 44°
2026-05-07 10:18 45.15713 9.58441 36023 ft 493 kts 44°
2026-05-07 10:18 45.20247 9.65732 36021 ft 494 kts 51°
2026-05-07 10:19 45.24544 9.73338 36015 ft 494 kts 50°
2026-05-07 10:19 45.28852 9.80955 36026 ft 495 kts 51°
2026-05-07 10:20 45.33159 9.88581 36018 ft 495 kts 51°
2026-05-07 10:20 45.37463 9.96237 36017 ft 496 kts 51°
2026-05-07 10:21 45.41756 10.03916 36017 ft 496 kts 51°
2026-05-07 10:21 45.46055 10.11609 36017 ft 496 kts 51°
2026-05-07 10:22 45.50357 10.19306 36018 ft 497 kts 51°
2026-05-07 10:22 45.54650 10.27030 36015 ft 497 kts 51°
2026-05-07 10:23 45.58933 10.34772 36011 ft 497 kts 51°
2026-05-07 10:23 45.63222 10.42525 36008 ft 497 kts 51°
2026-05-07 10:24 45.67510 10.50291 36004 ft 497 kts 51°
2026-05-07 10:24 45.71790 10.58070 35997 ft 498 kts 52°
2026-05-07 10:25 45.76055 10.65865 35996 ft 498 kts 52°
2026-05-07 10:25 45.80321 10.73678 35992 ft 498 kts 52°
2026-05-07 10:26 45.84585 10.81500 35996 ft 498 kts 52°
2026-05-07 10:26 45.88847 10.89321 35996 ft 498 kts 52°
2026-05-07 10:27 45.93099 10.97168 35990 ft 498 kts 52°
2026-05-07 10:27 45.97348 11.05021 35996 ft 498 kts 52°
2026-05-07 10:28 46.01586 11.12892 36008 ft 498 kts 52°
2026-05-07 10:28 46.05736 11.20784 36017 ft 497 kts 55°
2026-05-07 10:29 46.09657 11.28985 36026 ft 497 kts 57°
2026-05-07 10:29 46.13493 11.37268 36027 ft 497 kts 57°
2026-05-07 10:30 46.19326 11.49623 36013 ft 497 kts 56°
2026-05-07 10:30 46.22606 11.56501 35980 ft 496 kts 56°
2026-05-07 10:31 46.26514 11.64728 35980 ft 496 kts 56°
2026-05-07 10:31 46.30403 11.72975 35976 ft 496 kts 57°
2026-05-07 10:32 46.34278 11.81240 35979 ft 497 kts 57°
2026-05-07 10:32 46.38125 11.89466 35973 ft 497 kts 57°
2026-05-07 10:33 46.41996 11.97753 35973 ft 496 kts 57°
2026-05-07 10:33 46.45865 12.06031 35991 ft 496 kts 57°
2026-05-07 10:34 46.49726 12.14328 36002 ft 495 kts 57°
2026-05-07 10:34 46.53576 12.22635 36018 ft 496 kts 56°
2026-05-07 10:35 46.57418 12.30951 36024 ft 495 kts 57°
2026-05-07 10:35 46.61248 12.39282 36030 ft 496 kts 57°
2026-05-07 10:36 46.65069 12.47613 36023 ft 495 kts 57°
2026-05-07 10:36 46.68532 12.56249 36006 ft 493 kts 70°
2026-05-07 10:37 46.70186 12.65816 35990 ft 485 kts 89°
2026-05-07 10:37 46.70120 12.75541 35969 ft 479 kts 97°
2026-05-07 10:38 46.69803 12.85252 35969 ft 481 kts 97°
2026-05-07 10:38 46.69482 12.94977 35967 ft 480 kts 97°
2026-05-07 10:39 46.69146 13.04699 35970 ft 481 kts 97°
2026-05-07 10:39 46.68802 13.14419 35968 ft 481 kts 97°
2026-05-07 10:40 46.68902 13.24184 35965 ft 487 kts 84°
2026-05-07 10:40 46.70957 13.33619 35966 ft 493 kts 64°
2026-05-07 10:41 46.74110 13.42487 35965 ft 493 kts 64°
2026-05-07 10:41 46.77263 13.51363 35968 ft 493 kts 63°
2026-05-07 10:42 46.80406 13.60259 35976 ft 493 kts 64°
2026-05-07 10:42 46.83540 13.69157 35970 ft 492 kts 64°
2026-05-07 10:43 46.86664 13.78073 35979 ft 493 kts 64°
2026-05-07 10:43 46.89785 13.86985 35973 ft 493 kts 64°
2026-05-07 10:44 46.92903 13.95917 35976 ft 492 kts 64°
2026-05-07 10:44 46.96002 14.04857 35975 ft 493 kts 64°
2026-05-07 10:45 46.99093 14.13816 35977 ft 493 kts 64°
2026-05-07 10:45 47.02188 14.22785 35977 ft 493 kts 64°
2026-05-07 10:46 47.05282 14.31765 35985 ft 493 kts 64°
2026-05-07 10:46 47.08359 14.40751 35986 ft 493 kts 64°
2026-05-07 10:47 47.09896 14.45256 35728 ft 495 kts 64°
2026-05-07 10:47 47.11310 14.49919 34637 ft 506 kts 73°
2026-05-07 10:47 47.12282 14.54881 33844 ft 508 kts 78°
2026-05-07 10:47 47.13147 14.59910 33171 ft 506 kts 78°
2026-05-07 10:48 47.14008 14.64892 32693 ft 501 kts 78°
2026-05-07 10:48 47.14861 14.69831 32164 ft 497 kts 78°
2026-05-07 10:48 47.15691 14.74659 31652 ft 492 kts 78°
2026-05-07 10:48 47.16521 14.79521 31155 ft 488 kts 78°
2026-05-07 10:49 47.17339 14.84336 30706 ft 482 kts 78°
2026-05-07 10:49 47.18145 14.89092 30192 ft 479 kts 79°
2026-05-07 10:49 47.18943 14.93813 29750 ft 472 kts 79°
2026-05-07 10:49 47.19730 14.98478 29158 ft 468 kts 79°
2026-05-07 10:50 47.20505 15.03089 28642 ft 463 kts 79°
2026-05-07 10:50 47.21271 15.07653 28182 ft 457 kts 79°
2026-05-07 10:50 47.22026 15.12162 27726 ft 451 kts 79°
2026-05-07 10:50 47.22771 15.16610 27300 ft 445 kts 79°
2026-05-07 10:51 47.23505 15.21003 26874 ft 440 kts 79°
2026-05-07 10:51 47.24228 15.25349 26456 ft 435 kts 79°
2026-05-07 10:51 47.24940 15.29644 26062 ft 430 kts 79°
2026-05-07 10:51 47.25646 15.33909 25643 ft 427 kts 79°
2026-05-07 10:52 47.26341 15.38138 25226 ft 423 kts 79°
2026-05-07 10:52 47.27029 15.42323 24808 ft 419 kts 79°
2026-05-07 10:52 47.27711 15.46482 24373 ft 417 kts 79°
2026-05-07 10:52 47.28387 15.50625 23941 ft 415 kts 79°
2026-05-07 10:53 47.29059 15.54747 23485 ft 414 kts 79°
2026-05-07 10:53 47.29726 15.58860 22997 ft 411 kts 79°
2026-05-07 10:53 47.30389 15.62940 22548 ft 408 kts 79°
2026-05-07 10:53 47.31049 15.66988 22096 ft 405 kts 79°
2026-05-07 10:54 47.31705 15.71011 21643 ft 402 kts 79°
2026-05-07 10:54 47.32351 15.75002 21185 ft 399 kts 79°
2026-05-07 10:54 47.32990 15.78972 20737 ft 397 kts 79°
2026-05-07 10:54 47.33623 15.82911 20287 ft 394 kts 79°
2026-05-07 10:55 47.34248 15.86829 19786 ft 391 kts 79°
2026-05-07 10:55 47.34864 15.90688 19160 ft 382 kts 79°
2026-05-07 10:55 47.35589 15.94410 18484 ft 377 kts 68°
2026-05-07 10:55 47.36928 15.97721 17954 ft 375 kts 56°
2026-05-07 10:56 47.38388 16.00898 17497 ft 373 kts 57°
2026-05-07 10:56 47.39825 16.04070 17021 ft 371 kts 57°
2026-05-07 10:56 47.41251 16.07245 16569 ft 370 kts 57°
2026-05-07 10:56 47.42665 16.10407 16120 ft 369 kts 58°
2026-05-07 10:57 47.44076 16.13564 15664 ft 367 kts 58°
2026-05-07 10:57 47.45483 16.16708 15206 ft 367 kts 58°
2026-05-07 10:57 47.46887 16.19847 14756 ft 365 kts 58°
2026-05-07 10:57 47.48288 16.22974 14300 ft 364 kts 58°
2026-05-07 10:58 47.49667 16.26050 13850 ft 364 kts 58°
2026-05-07 10:58 47.51082 16.29209 13363 ft 363 kts 58°
2026-05-07 10:58 47.52453 16.32273 12922 ft 361 kts 58°
2026-05-07 10:58 47.53831 16.35361 12472 ft 359 kts 58°
2026-05-07 10:59 47.55202 16.38437 12027 ft 357 kts 58°
2026-05-07 10:59 47.56566 16.41495 11666 ft 353 kts 58°
2026-05-07 10:59 47.57896 16.44478 11536 ft 341 kts 58°
2026-05-07 10:59 47.59176 16.47350 11179 ft 329 kts 58°
2026-05-07 11:00 47.60427 16.50161 10618 ft 325 kts 57°
2026-05-07 11:00 47.61662 16.52946 10048 ft 322 kts 57°
2026-05-07 11:00 47.62879 16.55697 9524 ft 316 kts 58°
2026-05-07 11:00 47.64070 16.58390 9102 ft 307 kts 57°
2026-05-07 11:01 47.65225 16.61000 8720 ft 299 kts 58°
2026-05-07 11:01 47.66293 16.63592 8361 ft 291 kts 66°
2026-05-07 11:01 47.66982 16.66414 7967 ft 292 kts 78°
2026-05-07 11:01 47.67541 16.69332 7560 ft 297 kts 73°
2026-05-07 11:02 47.68617 16.71958 7149 ft 303 kts 46°
2026-05-07 11:02 47.70374 16.73672 6735 ft 305 kts 18°
2026-05-07 11:02 47.72450 16.74091 6392 ft 300 kts 351°
2026-05-07 11:02 47.74479 16.73457 6003 ft 298 kts 343°
2026-05-07 11:03 47.76475 16.72721 5738 ft 294 kts 342°
2026-05-07 11:03 47.78449 16.71911 5376 ft 294 kts 341°
2026-05-07 11:03 47.80384 16.71093 4951 ft 291 kts 342°
2026-05-07 11:03 47.82328 16.70279 4485 ft 286 kts 342°
2026-05-07 11:04 47.84210 16.69494 4350 ft 278 kts 342°
2026-05-07 11:04 47.86054 16.68723 4219 ft 272 kts 342°
2026-05-07 11:04 47.87850 16.67971 4098 ft 264 kts 343°
2026-05-07 11:04 47.89586 16.67244 3995 ft 255 kts 343°
2026-05-07 11:05 47.91273 16.66537 3886 ft 248 kts 342°
2026-05-07 11:05 47.92921 16.65846 3774 ft 242 kts 343°
2026-05-07 11:05 47.94516 16.65176 3604 ft 237 kts 343°
2026-05-07 11:05 47.96098 16.64511 3325 ft 236 kts 343°
2026-05-07 11:06 47.97679 16.63847 3012 ft 236 kts 343°
2026-05-07 11:06 47.99263 16.63180 2702 ft 237 kts 344°
2026-05-07 11:06 48.00821 16.62525 2394 ft 228 kts 345°
2026-05-07 11:06 48.02310 16.61898 2114 ft 217 kts 344°
2026-05-07 11:07 48.03716 16.61305 1840 ft 202 kts 344°
2026-05-07 11:07 48.05021 16.60755 1527 ft 189 kts 345°
2026-05-07 11:07 48.06238 16.60243 1224 ft 174 kts 342°
2026-05-07 11:07 48.07356 16.59785 961 ft 158 kts 341°
2026-05-07 11:08 48.08364 16.59340 753 ft 146 kts 341°
2026-05-07 11:08 48.09312 16.58948 617 ft 132 kts 340°
2026-05-07 11:08 48.10030 16.58639 620 ft 84 kts 343°
2026-05-07 11:08 48.10447 16.58464 611 ft 50 kts 345°
2026-05-07 11:09 48.10684 16.58330 616 ft 26 kts 326°
2026-05-07 11:09 48.10820 16.58145 622 ft 27 kts 313°
2026-05-07 11:09 48.10946 16.57948 614 ft 26 kts 315°
2026-05-07 11:09 48.11056 16.57744 621 ft 25 kts 296°
2026-05-07 11:10 48.11133 16.57505 613 ft 26 kts 295°
2026-05-07 11:10 48.11215 16.57254 614 ft 28 kts 296°
2026-05-07 11:10 48.11299 16.57000 621 ft 26 kts 296°
2026-05-07 11:10 48.11377 16.56757 623 ft 23 kts 296°
2026-05-07 11:11 48.11449 16.56538 618 ft 24 kts 296°
2026-05-07 11:11 48.11526 16.56301 613 ft 25 kts 296°
2026-05-07 11:11 48.11595 16.56093 619 ft 14 kts 296°
2026-05-07 11:11 48.11638 16.55960 615 ft 14 kts 295°
2026-05-07 11:12 48.11681 16.55827 620 ft 15 kts 296°
2026-05-07 11:12 48.11729 16.55682 618 ft 16 kts 296°
2026-05-07 11:12 48.11804 16.55585 618 ft 16 kts 13°
2026-05-07 11:12 48.11874 16.55516 616 ft 14 kts 291°
2026-05-07 11:13 48.11928 16.55443 613 ft 12 kts 22°
2026-05-07 11:13 48.12004 16.55501 623 ft 13 kts 26°
2026-05-07 11:13 48.12036 16.55533 626 ft 2 kts 60°
2026-05-07 11:13 48.12035 16.55558 613 ft 3 kts 102°
2026-05-07 11:14 48.12026 16.55585 616 ft 3 kts 115°
2026-05-07 11:14 48.12020 16.55602 612 ft 1 kts 116°
2026-05-07 11:14 48.12018 16.55609 619 ft 0 kts 116°